{"data":{"norad_id":43678,"intl_designator":"2018-084H","name":"DIWATA-2B","alt_names":[],"object_type":"PAYLOAD","status":"ACTIVE","operator":null,"country":"RP","launch_date":"2018-10-29","launch_site_code":"TANSC","launch_vehicle":null,"mission":null,"orbit_class":"UNKNOWN","rcs_meters":null,"size_class":null,"mass_kg":null,"dimensions":null,"purposes":["comms"],"wikipedia_slug":null,"has_3d_model":false,"image_url":null,"decayed_at":null,"tle_current":{"epoch":"2026-09-20T04:33:05.822208Z","epoch_age_seconds":41306,"freshness":"FRESH","line1":"1 43678U 18084H   26263.18965072  .00000913  00000+0  77117-4 0  9995","line2":"2 43678  98.1174 103.5804 0011959 209.8877 150.1664 15.00738558430469","mean_motion":15.00738558,"eccentricity":0.0011959,"inclination_deg":98.1174,"raan_deg":103.5804,"arg_perigee_deg":209.8877,"mean_anomaly_deg":150.1664,"bstar":7.7117e-5,"rev_number":43046,"period_min":95.952755549844,"perigee_km":556.31474710863,"apogee_km":572.92042753058,"semimajor_km":6942.7545873196,"source":"CELESTRAK","updated_at":"2026-09-20T09:00:45.234781Z"}}}